Weather History for Jasper, TX

Change the Weather History Date:

Wednesday, June 26, 2013

  Actual Average (KLFK) Record (KLFK)
Temperature  
Mean Temperature 84 °F 81 °F  
Max Temperature 94 °F 92 °F 103 °F (1918)
Min Temperature 73 °F 71 °F 58 °F (1974)
Degree Days  
Heating Degree Days 0 0  
Month to date heating degree days 0  
Since 1 June heating degree days 0  
Since 1 July heating degree days 1917  
Cooling Degree Days 18 16  
Month to date cooling degree days 385  
Year to date cooling degree days 854  
Since 1 June cooling degree days 385  
Growing Degree Days 34 (Base 50)    
Moisture  
Dew Point 74 °F    
Average Humidity 74    
Maximum Humidity 95    
Minimum Humidity 46    
Precipitation  
Precipitation 0.00 in 0.15 in 1.34 in (2002)
Month to date precipitation 4.11  
Year to date precipitation 23.63  
Snow  
Snow 0.00 in - - ()
Month to date snowfall  
Since 1 June snowfall  
Since 1 July snowfall  
Snow Depth -    
Sea Level Pressure  
Sea Level Pressure 30.01 in    
Wind  
Wind Speed 4 mph (South)    
Max Wind Speed 9 mph    
Max Gust Speed 9 mph    
Visibility 9 miles    
Events      
T = Trace of Precipitation, MM = Missing Value Source: NWS Daily Summary

Daily Weather History Graph

Daily Weather History Graph

Search for Another Location

Airport:

Trip Planner

Search our weather history database for the weather conditions in past years. The results will help you decide how hot, cold, wet, or windy it might be!

Date:

Astronomy

Jun. 26, 2013 Rise Set
Actual Time 6:14 AM CDT 8:23 PM CDT
Civil Twilight 5:47 AM CDT 8:51 PM CDT
Nautical Twilight 5:13 AM CDT 9:24 PM CDT
Astronomical Twilight 4:36 AM CDT 10:01 PM CDT
Moon 11:04 PM CDT (6/26) 9:52 AM CDT (6/26)
Length of Visible Light 15h 04m
Length of Day
14h 08m
Waning Gibbous, 85% of the Moon is Illuminated
Jun 26
Waning Gibbous
Jun 29
Last Quarter
Jul 8
New
Jul 15
First Quarter
Jul 22
Full

Hourly Weather History & Observations

Time (CDT) Temp. Heat Index Dew Point Humidity Pressure Visibility Wind Dir Wind Speed Gust Speed Precip Events Conditions
12:15 AM 77.9 °F - 74.1 °F 88% 30.01 in 10.0 mi SE 3.5 mph - N/A   Clear
12:35 AM 77.2 °F - 73.9 °F 90% 30.00 in 10.0 mi SSE 3.5 mph - N/A   Clear
12:55 AM 77.2 °F - 73.8 °F 89% 30.00 in 10.0 mi South 4.6 mph - N/A   Clear
1:15 AM 77.2 °F - 73.9 °F 90% 30.00 in 10.0 mi Calm Calm - N/A   Clear
1:35 AM 76.8 °F - 73.8 °F 90% 29.99 in 10.0 mi South 4.6 mph - N/A   Clear
1:55 AM 76.5 °F - 73.6 °F 91% 30.00 in 10.0 mi SSE 3.5 mph - N/A   Clear
2:15 AM 76.6 °F - 73.8 °F 91% 29.99 in 10.0 mi Calm Calm - N/A   Clear
2:35 AM 76.5 °F - 73.6 °F 91% 30.00 in 10.0 mi Calm Calm - N/A   Scattered Clouds
2:55 AM 76.1 °F - 73.4 °F 91% 29.99 in 10.0 mi Calm Calm - N/A   Scattered Clouds
3:15 AM 75.6 °F - 73.2 °F 92% 30.00 in 10.0 mi Calm Calm - N/A   Mostly Cloudy
3:35 AM 75.7 °F - 73.4 °F 92% 29.99 in 10.0 mi Calm Calm - N/A   Overcast
3:55 AM 75.7 °F - 73.4 °F 92% 29.99 in 7.0 mi Calm Calm - N/A   Mostly Cloudy
4:15 AM 75.4 °F - 73.2 °F 93% 29.99 in 10.0 mi Calm Calm - N/A   Scattered Clouds
4:35 AM 75.0 °F - 72.9 °F 93% 29.99 in 7.0 mi Calm Calm - N/A   Scattered Clouds
4:55 AM 74.5 °F - 72.5 °F 94% 30.00 in 7.0 mi Calm Calm - N/A   Scattered Clouds
5:15 AM 73.9 °F - 72.1 °F 94% 29.99 in 5.0 mi Calm Calm - N/A   Clear
5:35 AM 73.9 °F - 72.3 °F 95% 29.99 in 7.0 mi SSE 3.5 mph - N/A   Clear
5:55 AM 74.5 °F - 72.9 °F 95% 30.00 in 7.0 mi Calm Calm - N/A   Clear
6:15 AM 74.3 °F - 72.5 °F 94% 30.01 in 5.0 mi Calm Calm - N/A   Clear
6:35 AM 74.3 °F - 72.5 °F 94% 30.01 in 4.0 mi Calm Calm - N/A   Clear
6:55 AM 74.1 °F - 72.5 °F 95% 30.03 in 5.0 mi Calm Calm - N/A   Clear
7:15 AM 74.5 °F - 72.9 °F 95% 30.03 in 5.0 mi Calm Calm - N/A   Clear
7:35 AM 75.2 °F - 73.6 °F 95% 30.03 in 7.0 mi South 3.5 mph - N/A   Clear
7:55 AM 76.8 °F - 74.3 °F 92% 30.03 in 7.0 mi South 5.8 mph - N/A   Clear
8:15 AM 79.5 °F - 75.6 °F 88% 30.04 in 10.0 mi SSW 8.1 mph - N/A   Clear
8:35 AM 81.3 °F 87.8 °F 75.7 °F 83% 30.05 in 10.0 mi SSW 6.9 mph - N/A   Clear
8:55 AM 82.6 °F 90.5 °F 76.1 °F 81% 30.06 in 10.0 mi SSW 8.1 mph - N/A   Clear
9:15 AM 83.5 °F 91.9 °F 75.9 °F 78% 30.06 in 10.0 mi South 8.1 mph - N/A   Clear
9:55 AM 85.1 °F 94.9 °F 76.3 °F 75% 30.06 in 10.0 mi SW 8.1 mph - N/A   Scattered Clouds
10:15 AM 85.5 °F 95.0 °F 75.7 °F 73% 30.06 in 10.0 mi SW 5.8 mph 9.2 mph N/A   Mostly Cloudy
10:35 AM 86.5 °F 95.5 °F 75.0 °F 68% 30.06 in 10.0 mi SSW 8.1 mph - N/A   Scattered Clouds
10:55 AM 88.0 °F 98.0 °F 75.2 °F 66% 30.06 in 10.0 mi WSW 8.1 mph - N/A   Scattered Clouds
11:15 AM 88.9 °F 98.1 °F 74.3 °F 62% 30.06 in 10.0 mi SW 6.9 mph - N/A   Scattered Clouds
11:35 AM 89.2 °F 98.4 °F 74.1 °F 61% 30.06 in 10.0 mi SSW 9.2 mph - N/A   Scattered Clouds
11:55 AM 89.6 °F 98.7 °F 74.1 °F 60% 30.06 in 10.0 mi SW 5.8 mph - N/A   Scattered Clouds
12:15 PM 90.1 °F 98.9 °F 73.6 °F 58% 30.05 in 10.0 mi Calm Calm - N/A   Scattered Clouds
12:35 PM 90.1 °F 98.9 °F 73.8 °F 58% 30.05 in 10.0 mi SW 5.8 mph - N/A   Scattered Clouds
12:55 PM 90.5 °F 99.2 °F 73.4 °F 57% 30.05 in 10.0 mi SSW 4.6 mph - N/A   Scattered Clouds
1:15 PM 91.0 °F 100.4 °F 73.8 °F 57% 30.04 in 10.0 mi WSW 3.5 mph - N/A   Scattered Clouds
1:35 PM 90.9 °F 100.0 °F 73.8 °F 57% 30.03 in 10.0 mi WSW 4.6 mph - N/A   Mostly Cloudy
1:55 PM 91.2 °F 100.8 °F 74.3 °F 57% 30.03 in 10.0 mi South 4.6 mph - N/A   Scattered Clouds
2:15 PM 91.6 °F 102.3 °F 74.8 °F 58% 30.02 in 10.0 mi SW 6.9 mph - N/A   Scattered Clouds
2:35 PM 92.8 °F 104.1 °F 75.0 °F 56% 30.01 in 10.0 mi SSW 8.1 mph - N/A   Scattered Clouds
2:55 PM 93.0 °F 102.6 °F 73.4 °F 53% 30.00 in 10.0 mi SW 6.9 mph - N/A   Scattered Clouds
3:15 PM 93.2 °F 101.7 °F 72.5 °F 51% 30.00 in 10.0 mi South 4.6 mph - N/A   Mostly Cloudy
3:35 PM 92.7 °F 102.4 °F 73.6 °F 54% 29.99 in 10.0 mi South 5.8 mph - N/A   Scattered Clouds
3:55 PM 93.4 °F 101.5 °F 72.1 °F 50% 29.99 in 10.0 mi South 6.9 mph - N/A   Scattered Clouds
4:15 PM 94.3 °F 101.0 °F 70.3 °F 46% 29.99 in 10.0 mi South 9.2 mph - N/A   Scattered Clouds
4:35 PM 94.1 °F 100.6 °F 70.5 °F 46% 29.98 in 10.0 mi South 6.9 mph - N/A   Clear
4:55 PM 94.1 °F 101.2 °F 70.9 °F 47% 29.98 in 10.0 mi South 3.5 mph - N/A   Clear
5:15 PM 94.1 °F 100.6 °F 70.7 °F 46% 29.98 in 10.0 mi SSW 6.9 mph - N/A   Clear
5:35 PM 94.1 °F 100.6 °F 70.7 °F 46% 29.97 in 10.0 mi South 5.8 mph - N/A   Clear
5:55 PM 93.7 °F 100.5 °F 70.7 °F 47% 29.97 in 10.0 mi South 8.1 mph - N/A   Clear
6:15 PM 93.2 °F 100.5 °F 71.2 °F 49% 29.96 in 10.0 mi South 8.1 mph - N/A   Clear
6:35 PM 92.8 °F 100.3 °F 71.8 °F 50% 29.96 in 10.0 mi South 8.1 mph - N/A   Clear
6:55 PM 92.1 °F 99.4 °F 71.4 °F 51% 29.96 in 10.0 mi South 5.8 mph - N/A   Clear
7:15 PM 91.4 °F 98.9 °F 72.0 °F 53% 29.96 in 10.0 mi South 3.5 mph - N/A   Clear
7:35 PM 90.7 °F 99.0 °F 73.0 °F 56% 29.96 in 10.0 mi Calm Calm - N/A   Clear
7:55 PM 89.1 °F 97.5 °F 73.8 °F 60% 29.96 in 10.0 mi SSE 3.5 mph - N/A   Clear
8:15 PM 87.6 °F 96.2 °F 74.1 °F 64% 29.96 in 10.0 mi SSE 3.5 mph - N/A   Clear
8:35 PM 86.2 °F 95.1 °F 75.0 °F 69% 29.96 in 10.0 mi South 4.6 mph - N/A   Clear
8:55 PM 85.3 °F 94.6 °F 75.7 °F 73% 29.96 in 10.0 mi SSE 5.8 mph - N/A   Clear
9:15 PM 84.6 °F 93.9 °F 76.1 °F 76% 29.97 in 10.0 mi SSE 4.6 mph - N/A   Clear
9:35 PM 83.8 °F 92.5 °F 76.1 °F 77% 29.97 in 10.0 mi South 5.8 mph - N/A   Clear
9:55 PM 83.1 °F 91.3 °F 76.1 °F 79% 29.98 in 10.0 mi South 4.6 mph - N/A   Clear
10:15 PM 82.6 °F 90.5 °F 76.1 °F 81% 29.99 in 7.0 mi South 4.6 mph - N/A   Clear
10:35 PM 81.3 °F 87.8 °F 75.7 °F 83% 30.00 in 10.0 mi South 4.6 mph - N/A   Clear
10:55 PM 80.2 °F 85.7 °F 75.6 °F 86% 30.00 in 10.0 mi Calm Calm - N/A   Clear
11:15 PM 79.3 °F - 75.4 °F 88% 30.01 in 10.0 mi Calm Calm - N/A   Clear
11:35 PM 78.6 °F - 75.2 °F 89% 30.01 in 10.0 mi South 3.5 mph - N/A   Clear
11:55 PM 78.3 °F - 75.2 °F 90% 30.01 in 10.0 mi South 5.8 mph - N/A   Clear